User: anonymous   Login
Location: SAPM � Hemmingford
(45.0500°N, 73.5833°W)
Time: 15:21:54
(UTC-04:00)
Language:

Iridium 75 - Orbit

View from above orbital plane
View from above orbital plane
View from above satellite
View from above satellite

Ground track
Ground track

The orbit data is extracted from the following two-line orbital elements,

1 25346U 98032E   18171.54971000  .00585889 -12829-5  13313-2 0  9990
2 25346  86.3989  69.9460 0360253 170.9079 189.8946 15.37360437 52495
Epoch (UTC): 20 June 2018 13:11:34
Eccentricity: 0.0360253
inclination: 86.3989°
perigee height: 208 km
apogee height: 700 km
right ascension of ascending node: 69.9460°
argument of perigee: 170.9079°
revolutions per day: 15.37360437
mean anomaly at epoch: 189.8946°
orbit number at epoch: 5249

The dashed part of the orbit path shows where the satellite is in the earth's shadow,  

DLR